Flag for Brazil Weather past 2 weeks in Teresina, Piauí, Brazil

Now
93 °F

Passing clouds.


Feels Like: 98 °F
Forecast: 73 / 90 °F
Wind: 7 mph from Southeast

Location: Teresina Aeroporto

Current Time: Jul 6, 2015 at 3:56:19 PM

Latest Report: Jul 6, 2015 at 3:00 PM


Visibility: N/A

Pressure: 29.80 "Hg

Humidity: 44%

Dew point: 68 °F

Location of TeresinaLocation

Historic Weather in Teresina — Graph

°F

Teresina temperature yesterday

Maximum temperature yesterday: 88 °F (at 12:00 PM)
Minimum temperature yesterday: 77 °F (at 2:00 AM)
Average temperature yesterday: 82 °F

Past Weeks' High & Low Weather Summary

 TemperatureHumidityPressure
High95 °F (Jun 21, 3:00 PM)100% (Jun 22, 5:00 AM)30.07 "Hg (Jun 22, 5:00 AM)
Low72 °F (Jun 27, 6:00 AM)36% (Jun 26, 5:00 PM)29.77 "Hg (Jul 2, 12:00 AM)
Average82 °F77%29.95 "Hg
* Reported Jun 21 2:00 PM — Jul 6 2:00 PM, Teresina, Weather by CustomWeather, © 2015

Note: Actual official high and low records may vary slightly from our data, if they occured in-between our weather recording intervals... More about our weather records

Advertising

Teresina weather history for previous 24 hours

 ConditionsComfort  
Time TempWeatherWind HumidityBarometerVisibility
2:00 PM
Mon, Jul 6
91 °FScattered clouds.6 mph56%29.83 "HgN/A
1:00 PM91 °FScattered clouds.8 mph52%29.86 "HgN/A
12:00 PM88 °FScattered clouds.10 mph62%29.89 "HgN/A
11:00 AM86 °FScattered clouds.8 mph70%29.92 "HgN/A
10:00 AM84 °FPassing clouds.8 mph74%29.92 "HgN/A
9:00 AM81 °FPartly sunny.9 mph79%29.95 "HgN/A
8:00 AM79 °FPartly sunny.No wind94%29.95 "HgN/A
7:00 AM75 °FPartly sunny.No wind100%29.92 "HgN/A
6:00 AM75 °FPartly sunny.No wind100%29.89 "HgN/A
5:00 AM75 °FClear.No wind100%29.89 "Hg10 mi
4:00 AM75 °FClear.No wind100%29.86 "Hg10 mi
3:00 AM75 °FClear.2 mph100%29.83 "Hg10 mi
2:00 AM77 °FClear.No wind94%29.86 "Hg10 mi
1:00 AM77 °FClear.No wind94%29.86 "Hg10 mi
12:00 AM79 °FClear.3 mph89%29.86 "Hg10 mi
11:00 PM
Sun, Jul 5
81 °FClear.No wind84%29.89 "Hg10 mi
10:00 PM81 °FClear.3 mph84%29.89 "Hg10 mi
9:00 PM82 °FClear.No wind84%29.86 "Hg10 mi
8:00 PM82 °FClear.3 mph84%29.86 "Hg10 mi
7:00 PM82 °FClear.3 mph89%29.83 "Hg10 mi
6:00 PM84 °FClear.No wind74%29.83 "Hg10 mi
5:00 PM84 °FSunny.3 mph74%29.83 "Hg10 mi
4:00 PM86 °FOvercast.6 mph70%29.83 "HgN/A
3:00 PM88 °FPartly sunny.8 mph66%29.83 "HgN/A
Weather by CustomWeather, © 2015

See weather overviewHow to use our weather pages